Regional Weather Roundup
Issued by NWS

Home | Current Version | Previous Version | Graphics & Text | Print | Product List | Glossary On
Versions: 1 2 3 4 5 6 7 8 9 10 11 12 13 14 15 16 17 18 19 20 21 22 23 24 25 26 27 28 29 30 31 32 33 34 35 36 37 38 39 40 41 42 43 44 45 46 47 48 49 50
000
ASUS44 KMEG 241010
RWRTN
TENNESSEE HOURLY STATE WEATHER ROUNDUP
NATIONAL WEATHER SERVICE MEMPHIS TN
400 AM CST FRI NOV 24 2017

TNZ002-004-019-021-049-052-054-088>092-241100-
WEST TENNESSEE

CITY           SKY/WX    TMP DP  RH WIND       PRES   REMARKS
MEMPHIS INTL   CLEAR     38  28  67 S7        30.01F WCI  33
NWS MEMPHIS      N/A     33 N/A N/A MISG        N/A
JACKSON        CLEAR     28  26  92 CALM      30.01F
DYERSBURG      CLEAR     35  28  75 CALM      29.99F
SOMERVILLE     CLEAR     34  27  75 S6        29.99F WCI  29
COVINGTON      CLEAR     30  28  93 SE5       30.01S WCI  25
UNION CITY     CLEAR     34  25  69 S5        29.98F WCI  30
BOLIVAR        CLEAR     28  27  93 CALM      30.01S
PARIS          CLEAR     34  25  69 SW3       29.98F
HUNTINGDON     CLEAR     30  27  86 CALM      29.98F
LEXINGTON      CLEAR     28  27  93 CALM      30.01F
SELMER         CLEAR     30  25  80 SE3       30.01F
SAVANNAH       CLEAR     27  27 100 CALM      30.02F
$$

TNZ008-025-027-028-033-062-065-066-241100-
NORTH MIDDLE TENNESSEE

CITY           SKY/WX    TMP DP  RH WIND       PRES   REMARKS
NASHVILLE      CLEAR     32  26  78 CALM      30.03S
PORTLAND       CLEAR     32  27  80 S7        29.99F WCI  26
CLARKSVILLE    CLOUDY    29  25  85 CALM      29.99F
SMYRNA         CLOUDY    26  25  96 CALM      30.04S
COOKEVILLE     CLEAR     25  25 100 CALM      30.02R
GALLATIN       CLEAR     28  25  86 CALM      30.05S
CROSSVILLE     CLOUDY    29  23  78 CALM      30.01F
$$

TNZ061-075-076-078-094-096-097-241100-
SOUTH MIDDLE TENNESSEE

CITY           SKY/WX    TMP DP  RH WIND       PRES   REMARKS
FAYETTEVILLE   MOCLDY    36  27  69 CALM      30.01S
TULLAHOMA      PTCLDY    28  25  86 CALM      30.01S
WINCHESTER     CLEAR     27  27 100 CALM      30.02S
MCMINNVILLE    CLEAR     27  25  93 CALM      30.02S
COLUMBIA       PTCLDY    27  27 100 CALM      30.02R
SHELBYVILLE    CLEAR     28  25  86 E5        30.02S WCI  23
$$

TNZ017-018-042-046-047-241100-
NORTHEAST TENNESSEE

CITY           SKY/WX    TMP DP  RH WIND       PRES   REMARKS
TRI CITIES     CLEAR     28  27  96 CALM      30.04F
ELIZABETHTON   CLEAR     32  30  93 CALM      30.05S
$$

TNZ012-013-036-069-073-074-241100-
CENTRAL EAST TENNESSEE

CITY           SKY/WX    TMP DP  RH WIND       PRES   REMARKS
KNOXVILLE      CLEAR     32  32 100 CALM      30.02F
OAK RIDGE      CLOUDY    30  30 100 CALM      30.05S FOG
DOWNTOWN KNOXV FOG       32  32 100 CALM      30.04F VSB 0
GATLINBURG     CLEAR     28  28 100 CALM      30.03F
MORRISTOWN     CLEAR     32  30  93 CALM      30.02F
JACKSBORO      CLEAR     28  28 100 CALM      30.07S
$$

TNZ083-085-099-241100-
SOUTHEAST TENNESSEE

CITY           SKY/WX    TMP DP  RH WIND       PRES   REMARKS
CHATTANOOGA    CLEAR     33  31  92 CALM      30.04F
DAYTON         FOG       30  30 100 CALM      30.03F VSB 1/4
$$

SKY/WX REPORTED AS FAIR MEANS FEW OR NO CLOUDS BELOW
12 THOUSAND FEET.




USA.gov is the U.S. government's official web portal to all federal, state and local government web resources and services.